This is the latest recevied weather packets stored in our database for station/object OE8NDR-11. If no packets are shown the sender has not sent any weather packets the latest 10 day(s).
| Time | Temp. | Humidity | Pressure | Rain* | Wind** | Luminosity | Snow |
|---|---|---|---|---|---|---|---|
| 1777723100 | 19.44° C | 38% | 1019.8 hPa | 0 mm | - | - | - |
| 1777722800 | 18.89° C | 36% | 1019.8 hPa | 0 mm | - | - | - |
| 1777722500 | 18.89° C | 40% | 1019.7 hPa | 0 mm | - | - | - |
| 1777722200 | 18.89° C | 37% | 1019.8 hPa | 0 mm | - | - | - |
| 1777721900 | 18.33° C | 37% | 1019.8 hPa | 0 mm | - | - | - |
| 1777721600 | 18.89° C | 36% | 1020 hPa | 0 mm | - | - | - |
| 1777721300 | 18.89° C | 37% | 1020 hPa | 0 mm | - | - | - |
| 1777721000 | 18.89° C | 38% | 1020.1 hPa | 0 mm | - | - | - |
| 1777720700 | 18.89° C | 35% | 1020.1 hPa | 0 mm | - | - | - |
| 1777720400 | 18.89° C | 39% | 1020.2 hPa | 0 mm | - | - | - |
| 1777720100 | 18.33° C | 35% | 1020.1 hPa | 0 mm | - | - | - |
| 1777719800 | 18.89° C | 33% | 1020.3 hPa | 0 mm | - | - | - |
| 1777719500 | 18.89° C | 35% | 1020.3 hPa | 0 mm | - | - | - |
| 1777719200 | 18.89° C | 33% | 1020.3 hPa | 0 mm | - | - | - |
| 1777718900 | 18.89° C | 36% | 1020.5 hPa | 0 mm | - | - | - |
| 1777718600 | 18.33° C | 34% | 1020.4 hPa | 0 mm | - | - | - |
| 1777718300 | 18.33° C | 34% | 1020.5 hPa | 0 mm | - | - | - |
| 1777718000 | 18.89° C | 36% | 1020.5 hPa | 0 mm | - | - | - |
| 1777717700 | 18.33° C | 36% | 1020.6 hPa | 0 mm | - | - | - |
| 1777717400 | 18.33° C | 34% | 1020.5 hPa | 0 mm | - | - | - |
| 1777717100 | 17.78° C | 32% | 1020.6 hPa | 0 mm | - | - | - |
| 1777716800 | 17.78° C | 34% | 1020.6 hPa | 0 mm | - | - | - |
| 1777716500 | 17.78° C | 33% | 1020.6 hPa | 0 mm | - | - | - |
| 1777716200 | 17.78° C | 35% | 1020.7 hPa | 0 mm | - | - | - |
| 1777715900 | 17.78° C | 36% | 1020.7 hPa | 0 mm | - | - | - |
* Rain latest hour (hover to see other rain measurements)
** Current wind speed in m/s (hover to see current wind gust speed)